Satellite: NOAA-12 Catalog number: 21263 Epoch time: 07283.90549584 Element set: 0382 Inclination: 098.7602 deg RA of node: 280.9950 deg Eccentricity: 0.0013202 Arg of perigee: 129.9285 deg Mean anomaly: 230.3066 deg Mean motion: 14.25496822 rev/day Decay rate: 1.0e-08 rev/day^2 Epoch rev: 85273 Checksum: 304
Satellite: MET-3/5 Catalog number: 21655 Epoch time: 07284.78560202 Element set: 333 Inclination: 082.5517 deg RA of node: 280.5637 deg Eccentricity: 0.0011941 Arg of perigee: 278.8438 deg Mean anomaly: 081.1333 deg Mean motion: 13.17013066 rev/day Decay rate: 5.1e-07 rev/day^2 Epoch rev: 77675 Checksum: 298
Satellite: MET-2/21 Catalog number: 22782 Epoch time: 07283.56677928 Element set: 0957 Inclination: 082.5474 deg RA of node: 310.3907 deg Eccentricity: 0.0020827 Arg of perigee: 273.1126 deg Mean anomaly: 086.7646 deg Mean motion: 13.83619626 rev/day Decay rate: 6.2e-07 rev/day^2 Epoch rev: 71247 Checksum: 333
Satellite: OKEAN-4 Catalog number: 23317 Epoch time: 07284.74256152 Element set: 394 Inclination: 082.5428 deg RA of node: 187.7989 deg Eccentricity: 0.0020736 Arg of perigee: 226.7100 deg Mean anomaly: 133.2376 deg Mean motion: 14.82539230 rev/day Decay rate: 7.9e-07 rev/day^2 Epoch rev: 70132 Checksum: 305
Satellite: NOAA-14 Catalog number: 23455 Epoch time: 07283.79575843 Element set: 0854 Inclination: 098.9785 deg RA of node: 350.5315 deg Eccentricity: 0.0010139 Arg of perigee: 130.8000 deg Mean anomaly: 229.4029 deg Mean motion: 14.13727761 rev/day Decay rate: 8.3e-07 rev/day^2 Epoch rev: 65897 Checksum: 327
Satellite: SICH-1 Catalog number: 23657 Epoch time: 07284.72830266 Element set: 194 Inclination: 082.5296 deg RA of node: 328.7691 deg Eccentricity: 0.0022859 Arg of perigee: 216.9988 deg Mean anomaly: 142.9643 deg Mean motion: 14.81517707 rev/day Decay rate: 1.96e-06 rev/day^2 Epoch rev: 65328 Checksum: 350
Satellite: NOAA-15 Catalog number: 25338 Epoch time: 07283.91436882 Element set: 0197 Inclination: 098.5399 deg RA of node: 277.3844 deg Eccentricity: 0.0011435 Arg of perigee: 055.1382 deg Mean anomaly: 305.0867 deg Mean motion: 14.24667324 rev/day Decay rate: -5.9e-07 rev/day^2 Epoch rev: 48916 Checksum: 343
Satellite: RESURS Catalog number: 25394 Epoch time: 07284.76601226 Element set: 758 Inclination: 098.4262 deg RA of node: 334.6036 deg Eccentricity: 0.0000882 Arg of perigee: 170.4399 deg Mean anomaly: 189.6797 deg Mean motion: 14.24146635 rev/day Decay rate: -1.9e-07 rev/day^2 Epoch rev: 48094 Checksum: 330
Satellite: FENGYUN1 Catalog number: 25730 Epoch time: 07283.93193076 Element set: 0245 Inclination: 098.7001 deg RA of node: 263.4709 deg Eccentricity: 0.0018488 Arg of perigee: 153.1758 deg Mean anomaly: 207.0369 deg Mean motion: 14.07622462 rev/day Decay rate: 5.63e-06 rev/day^2 Epoch rev: 43375 Checksum: 308
Satellite: OKEAN-0 Catalog number: 25860 Epoch time: 07283.54041954 Element set: 0183 Inclination: 097.7376 deg RA of node: 280.4376 deg Eccentricity: 0.0001724 Arg of perigee: 043.3806 deg Mean anomaly: 316.7530 deg Mean motion: 14.73477618 rev/day Decay rate: 6.4e-07 rev/day^2 Epoch rev: 44248 Checksum: 308
Satellite: NOAA-16 Catalog number: 26536 Epoch time: 07283.93961546 Element set: 0638 Inclination: 099.1317 deg RA of node: 262.9731 deg Eccentricity: 0.0010143 Arg of perigee: 204.4874 deg Mean anomaly: 155.5840 deg Mean motion: 14.12453747 rev/day Decay rate: 6.7e-07 rev/day^2 Epoch rev: 36344 Checksum: 317
Satellite: NOAA-17 Catalog number: 27453 Epoch time: 07283.83097770 Element set: 0637 Inclination: 098.5701 deg RA of node: 350.2969 deg Eccentricity: 0.0012753 Arg of perigee: 116.6052 deg Mean anomaly: 243.6415 deg Mean motion: 14.23914484 rev/day Decay rate: -2.5e-07 rev/day^2 Epoch rev: 27517 Checksum: 315
Satellite: NOAA-18 Catalog number: 28654 Epoch time: 07283.83145687 Element set: 0159 Inclination: 098.8373 deg RA of node: 223.2140 deg Eccentricity: 0.0013687 Arg of perigee: 304.1562 deg Mean anomaly: 055.8337 deg Mean motion: 14.11100742 rev/day Decay rate: 1.70e-06 rev/day^2 Epoch rev: 12316 Checksum: 292
/EX SB KEPS @ AMSAT $ORB07284.M Orbital Elements 07284.MISC
HR AMSAT ORBITAL ELEMENTS FOR MANNED AND MISCELLANEOUS SATELLITES FROM WA5QGD FORT WORTH,TX October 11, 2007 Send Subscribe/unsubscribe to KEPS at http://www.amsat.org/mailman/listinfo/keps BID: ORB07284.M TO ALL RADIO AMATEURS BT
Satellite: HUBBLE Catalog number: 20580 Epoch time: 07283.95928547 Element set: 0000 Inclination: 028.4675 deg RA of node: 155.1549 deg Eccentricity: 0.0003640 Arg of perigee: 239.7889 deg Mean anomaly: 120.2338 deg Mean motion: 15.00288420 rev/day Decay rate: 3.60e-06 rev/day^2 Epoch rev: 75736 Checksum: 300
Satellite: UARS Catalog number: 21701 Epoch time: 07283.95316724 Element set: 0198 Inclination: 056.9739 deg RA of node: 171.2098 deg Eccentricity: 0.0094957 Arg of perigee: 058.7477 deg Mean anomaly: 302.2839 deg Mean motion: 15.49209905 rev/day Decay rate: 5.567e-05 rev/day^2 Epoch rev: 88368 Checksum: 360
Satellite: PO-34 Catalog number: 25520 Epoch time: 07283.76273186 Element set: 841 Inclination: 028.4587 deg RA of node: 055.1836 deg Eccentricity: 0.0005315 Arg of perigee: 079.9847 deg Mean anomaly: 280.1349 deg Mean motion: 15.17061071 rev/day Decay rate: 5.04e-06 rev/day^2 Epoch rev: 49509 Checksum: 316
Satellite: ISS Catalog number: 25544 Epoch time: 07284.85708688 Element set: 143 Inclination: 051.6351 deg RA of node: 222.1283 deg Eccentricity: 0.0003247 Arg of perigee: 086.7256 deg Mean anomaly: 011.0121 deg Mean motion: 15.75545311 rev/day Decay rate: 9.156e-05 rev/day^2 Epoch rev: 50918 Checksum: 285
Satellite: OO-38 Catalog number: 26063 Epoch time: 07283.63738247 Element set: 31 Inclination: 100.2274 deg RA of node: 307.5899 deg Eccentricity: 0.0036668 Arg of perigee: 194.5592 deg Mean anomaly: 165.4527 deg Mean motion: 14.35816484 rev/day Decay rate: -2.2e-07 rev/day^2 Epoch rev: 40361 Checksum: 317
Satellite: UWE-1 Catalog number: 28892 Epoch time: 07283.72840278 Element set: 0871 Inclination: 098.1161 deg RA of node: 177.9885 deg Eccentricity: 0.0018472 Arg of perigee: 110.4084 deg Mean anomaly: 249.9121 deg Mean motion: 14.59547379 rev/day Decay rate: 7.0e-07 rev/day^2 Epoch rev: 10406 Checksum: 326
Satellite: CO-58 Catalog number: 28895 Epoch time: 07283.70351745 Element set: 0847 Inclination: 098.1163 deg RA of node: 178.2194 deg Eccentricity: 0.0018796 Arg of perigee: 110.5385 deg Mean anomaly: 249.7872 deg Mean motion: 14.59591100 rev/day Decay rate: 1.63e-06 rev/day^2 Epoch rev: 10394 Checksum: 341
Satellite: NCUBE2 Catalog number: 28897 Epoch time: 07284.24519742 Element set: 373 Inclination: 098.1174 deg RA of node: 178.6984 deg Eccentricity: 0.0017982 Arg of perigee: 109.7172 deg Mean anomaly: 250.5969 deg Mean motion: 14.59755979 rev/day Decay rate: 1.20e-06 rev/day^2 Epoch rev: 9630 Checksum: 358
Satellite: FCAL Catalog number: 29667 Epoch time: 07284.77294504 Element set: 396 Inclination: 051.6318 deg RA of node: 201.0363 deg Eccentricity: 0.0013515 Arg of perigee: 086.0624 deg Mean anomaly: 274.1939 deg Mean motion: 15.92619280 rev/day Decay rate: 2.2381e-04 rev/day^2 Epoch rev: 4655 Checksum: 308
Satellite: FALCON Catalog number: 30776 Epoch time: 07283.92373891 Element set: 0160 Inclination: 035.4336 deg RA of node: 231.0214 deg Eccentricity: 0.0001658 Arg of perigee: 358.6434 deg Mean anomaly: 001.4285 deg Mean motion: 15.02778978 rev/day Decay rate: 2.84e-06 rev/day^2 Epoch rev: 03247 Checksum: 295
Satellite: MAST Catalog number: 31126 Epoch time: 07283.71447339 Element set: 0156 Inclination: 098.0732 deg RA of node: 352.7320 deg Eccentricity: 0.0095395 Arg of perigee: 028.5270 deg Mean anomaly: 332.1094 deg Mean motion: 14.53368931 rev/day Decay rate: 3.43e-06 rev/day^2 Epoch rev: 02563 Checksum: 289
Satellite: CAPE1 Catalog number: 31130 Epoch time: 07283.61894378 Element set: 0138 Inclination: 098.0732 deg RA of node: 352.2284 deg Eccentricity: 0.0103320 Arg of perigee: 029.9311 deg Mean anomaly: 330.7738 deg Mean motion: 14.51890759 rev/day Decay rate: 2.02e-06 rev/day^2 Epoch rev: 02536 Checksum: 285
/EX